Location: Vaughan
(31.9146°N, 97.1736°W)
Time: 02:09:26
(UTC+00:00)

SL-16 R/B - Pass Details

Date: 10 December 2025
Orbit: 841 x 845 km, 71.0° (Epoch: 12 January)

Event Time Altitude Azimuth Distance (km) Brightness Sun altitude
Rises 01:05:06 0° 171° (S) 3,379 5.4 -20.7°
Reaches altitude 10° 01:07:49 10° 160° (SSE) 2,449 4.5 -21.3°
Enters shadow 01:10:44 24° 134° (SE) 1,683 3.5 -21.9°
